Weather History for Hayward, WI

Change the Weather History Date:

Saturday, November 9, 2013

  Actual Average Record
Temperature  
Mean Temperature 36 °F -  
Max Temperature 37 °F 38 °F 68 °F (1999)
Min Temperature 35 °F 28 °F 8 °F (2003)
Degree Days  
Heating Degree Days 29    
Moisture  
Dew Point 32 °F    
Average Humidity 84    
Maximum Humidity 93    
Minimum Humidity 70    
Precipitation  
Precipitation 0.03 in - - ()
Sea Level Pressure  
Sea Level Pressure 29.80 in    
Wind  
Wind Speed 5 mph (WSW)    
Max Wind Speed 10 mph    
Max Gust Speed 25 mph    
Visibility 9 miles    
Events Rain , Snow    
Averages and records for this station are not official NWS values.
T = Trace of Precipitation, MM = Missing Value Source: NWS Daily Summary

Daily Weather History Graph

Daily Weather History Graph

Search for Another Location

Airport:

Trip Planner

Search our weather history database for the weather conditions in past years. The results will help you decide how hot, cold, wet, or windy it might be!

Date:

Astronomy

Nov. 09, 2013 Rise Set
Actual Time 6:58 AM CST 4:40 PM CST
Civil Twilight 6:26 AM CST 5:12 PM CST
Nautical Twilight 5:50 AM CST 5:48 PM CST
Astronomical Twilight 5:15 AM CST 6:23 PM CST
Moon 12:31 PM CST (11/9) 11:15 PM CST (11/9)
Length of Visible Light 10h 46m
Length of Day
9h 42m
Waxing Crescent, 44% of the Moon is Illuminated
Nov 9
Waxing Crescent
Nov 9
First Quarter
Nov 17
Full
Nov 25
Last Quarter
Dec 2
New

Hourly Weather History & Observations

Time (CST) Temp. Windchill Dew Point Humidity Pressure Visibility Wind Dir Wind Speed Gust Speed Precip Events Conditions
12:23 AM 35.6 °F 31.7 °F 33.8 °F 93% 29.60 in 9.0 mi South 4.6 mph - 0.03 in Rain Light Rain
12:34 AM 35.6 °F - 33.8 °F 93% 29.59 in 9.0 mi Calm Calm - 0.03 in Rain Light Rain
12:53 AM 35.1 °F 32.2 °F 33.1 °F 92% 29.62 in 10.0 mi SSE 3.5 mph - 0.03 in   Overcast
1:53 AM 36.0 °F 33.3 °F 34.0 °F 93% 29.62 in 7.0 mi South 3.5 mph - 0.00 in Rain Light Rain
2:53 AM 37.0 °F - 35.1 °F 93% 29.61 in 8.0 mi Calm Calm - 0.00 in   Overcast
3:21 AM 37.4 °F 34.9 °F 35.6 °F 93% 29.58 in 8.0 mi SW 3.5 mph - N/A   Overcast
3:53 AM 37.9 °F 35.5 °F 36.0 °F 93% 29.62 in 8.0 mi Variable 3.5 mph - N/A   Overcast
4:53 AM 37.9 °F 33.5 °F 36.0 °F 93% 29.64 in 6.0 mi West 5.8 mph - N/A   Overcast
5:11 AM 37.4 °F 33.8 °F 35.6 °F 93% 29.61 in 6.0 mi Variable 4.6 mph - N/A   Overcast
5:53 AM 37.0 °F 31.6 °F 35.1 °F 93% 29.66 in 6.0 mi Variable 6.9 mph - N/A   Overcast
6:25 AM 37.4 °F 33.8 °F 35.6 °F 93% 29.64 in 7.0 mi Variable 4.6 mph - N/A   Overcast
6:53 AM 37.0 °F 32.4 °F 35.1 °F 93% 29.69 in 7.0 mi Variable 5.8 mph - 0.00 in Rain Light Rain
7:53 AM 37.0 °F 32.4 °F 34.0 °F 89% 29.71 in 5.0 mi Variable 5.8 mph - 0.00 in   Overcast
8:53 AM 36.0 °F 31.1 °F 34.0 °F 93% 29.73 in 5.0 mi Variable 5.8 mph - N/A   Overcast
9:26 AM 35.6 °F 29.9 °F 33.8 °F 93% 29.71 in 7.0 mi Variable 6.9 mph 16.1 mph N/A   Overcast
9:53 AM 37.0 °F 29.8 °F 33.1 °F 86% 29.76 in 8.0 mi West 10.4 mph 16.1 mph N/A   Overcast
10:53 AM 37.0 °F 31.6 °F 33.1 °F 86% 29.78 in 9.0 mi Variable 6.9 mph - N/A   Overcast
11:10 AM 37.4 °F 33.8 °F 33.8 °F 87% 29.75 in 10.0 mi Variable 4.6 mph 17.3 mph N/A   Overcast
11:53 AM 37.9 °F 32.7 °F 32.0 °F 79% 29.81 in 10.0 mi Variable 6.9 mph - N/A   Overcast
12:53 PM 37.9 °F 32.1 °F 30.0 °F 73% 29.83 in 10.0 mi West 8.1 mph 25.3 mph N/A   Overcast
1:14 PM 37.4 °F 32.8 °F 30.2 °F 75% 29.80 in 10.0 mi Variable 5.8 mph 18.4 mph N/A   Overcast
1:33 PM 37.4 °F 31.4 °F 30.2 °F 75% 29.80 in 10.0 mi West 8.1 mph - N/A   Overcast
1:53 PM 37.9 °F 32.7 °F 30.0 °F 73% 29.85 in 10.0 mi Variable 6.9 mph - N/A   Overcast
2:53 PM 37.9 °F 35.5 °F 30.9 °F 76% 29.87 in 10.0 mi Variable 3.5 mph - N/A   Overcast
3:09 PM 37.4 °F 32.1 °F 30.2 °F 75% 29.84 in 10.0 mi West 6.9 mph - N/A   Overcast
3:53 PM 37.0 °F 32.4 °F 30.9 °F 79% 29.90 in 10.0 mi West 5.8 mph - 0.00 in Rain Light Rain
4:53 PM 36.0 °F 29.6 °F 30.9 °F 82% 29.94 in 10.0 mi West 8.1 mph - 0.00 in   Overcast
5:53 PM 36.0 °F 30.3 °F 28.9 °F 76% 29.97 in 10.0 mi Variable 6.9 mph 20.7 mph N/A   Overcast
6:53 PM 36.0 °F 31.1 °F 27.0 °F 70% 29.99 in 10.0 mi Variable 5.8 mph - N/A   Overcast
7:53 PM 35.1 °F 29.3 °F 27.0 °F 72% 30.01 in 10.0 mi Variable 6.9 mph 21.9 mph N/A   Overcast
8:53 PM 35.1 °F 28.6 °F 28.0 °F 76% 30.03 in 9.0 mi WNW 8.1 mph - 0.00 in Snow Light Snow
9:53 PM 35.1 °F 27.9 °F 28.0 °F 76% 30.06 in 10.0 mi WNW 9.2 mph - 0.00 in   Overcast
10:53 PM 35.1 °F 29.3 °F 28.9 °F 78% 30.07 in 10.0 mi Variable 6.9 mph - N/A   Overcast
11:23 PM 35.6 °F 29.2 °F 28.4 °F 75% 30.03 in 10.0 mi West 8.1 mph - N/A   Overcast
11:48 PM 35.6 °F 29.2 °F 28.4 °F 75% 30.06 in 10.0 mi West 8.1 mph - N/A   Overcast
11:53 PM 36.0 °F 29.6 °F 28.9 °F 76% 30.10 in 10.0 mi West 8.1 mph - N/A   Overcast